This demonstration page uses our WeatherBlox Daily Observations layout. Learn more.

39.29038, -76.61219

Hourly Observations for May 16, 2019

Temp ( °F °C ) Dew Point ( °F °C ) Humidity (%) Winds ( mph kmh ) Pressure ( in mb ) Visibility ( mi km ) Precip ( " mm )
12:54 am 00:54 undefined 63 17.2 41 5 45 45 undefined N/A 29.88 1012 N/A 0 0
1:54 am 01:54 undefined 61 16.1 42 5.6 50 50 undefined N/A 29.85 1011 N/A 0 0
2:54 am 02:54 undefined 60 15.6 42 5.6 52 52 undefined N/A 29.85 1011 N/A 0 0
3:54 am 03:54 undefined 61 16.1 41 5 48 48 undefined N/A 29.88 1012 N/A 0 0
4:54 am 04:54 undefined 61 16.1 42 5.6 50 50 undefined N/A 29.85 1011 N/A 0 0
5:54 am 05:54 undefined 61 16.1 45 7.2 56 56 undefined N/A 29.88 1012 N/A 0 0
6:54 am 06:54 undefined 59 15 48 8.9 67 67 undefined N/A 29.88 1012 N/A 0.01 0.254
7:54 am 07:54 undefined 58 14.4 50 10 75 75 undefined N/A 29.91 1013 N/A 0.01 0.254
8:54 am 08:54 undefined 62 16.7 52 11.1 70 70 undefined N/A 29.97 1015 N/A 0 0
9:54 am 09:54 undefined 66 18.9 52 11.1 61 61 undefined N/A 29.94 1014 N/A 0 0
10:54 am 10:54 undefined 69 20.6 49 9.4 49 49 undefined N/A 29.94 1014 N/A 0 0
11:54 am 11:54 undefined 71 21.7 50 10 47 47 undefined N/A 29.91 1013 N/A 0 0
12:54 pm 12:54 undefined 73 22.8 49 9.4 43 43 undefined N/A 29.91 1013 N/A 0 0
1:54 pm 13:54 undefined 75 23.9 48 8.9 39 39 undefined N/A 29.88 1012 N/A 0 0
2:54 pm 14:54 undefined 77 25 46 7.8 33 33 undefined N/A 29.88 1012 N/A 0 0
3:54 pm 15:54 undefined 78 25.6 47 8.3 33 33 undefined N/A 29.85 1011 N/A 0 0
4:54 pm 16:54 undefined 78 25.6 46 7.8 32 32 undefined N/A 29.85 1011 N/A 0 0
5:54 pm 17:54 undefined 77 25 41 5 28 28 undefined N/A 29.83 1010 N/A 0 0
6:54 pm 18:54 undefined 76 24.4 41 5 29 29 undefined N/A 29.83 1010 N/A 0 0
7:54 pm 19:54 undefined 71 21.7 54 12.2 55 55 undefined N/A 29.85 1011 N/A 0 0
8:54 pm 20:54 undefined 69 20.6 52 11.1 55 55 undefined N/A 29.85 1011 N/A 0 0
9:54 pm 21:54 undefined 68 20 51 10.6 55 55 undefined N/A 29.88 1012 N/A 0 0
10:54 pm 22:54 undefined 67 19.4 52 11.1 59 59 undefined N/A 29.88 1012 N/A 0 0
11:54 pm 23:54 undefined 66 18.9 52 11.1 61 61 undefined N/A 29.88 1012 N/A 0 0

Powered by AerisWeather